Change the Weather History Date:

Monday, January 6, 2014

  Actual Average Record
Temperature  
Mean Temperature 72 °F -  
Max Temperature 78 °F 76 °F 81 °F (1999)
Min Temperature 66 °F 66 °F 60 °F (1997)
Cooling Degree Days 7    
Growing Degree Days 22 (Base 50)    
Moisture  
Dew Point 54 °F    
Average Humidity 51    
Maximum Humidity 63    
Minimum Humidity 42    
Precipitation  
Precipitation 0.02 in - - ()
Sea Level Pressure  
Sea Level Pressure 30.04 in    
Wind  
Wind Speed 10 mph (NE)    
Max Wind Speed 14 mph    
Max Gust Speed 24 mph    
Visibility 8 miles    
Events Rain    
Averages and records for this station are not official NWS values.
T = Trace of Precipitation, MM = Missing Value Source: NWS Daily Summary

Daily Weather History Graph

Daily Weather History Graph

Search for Another Location

Airport or City:

Trip Planner

Search our weather history database for the weather conditions in past years. The results will help you decide how hot, cold, wet, or windy it might be!

Date:

Astronomy

Jan. 06, 2014 Rise Set
Actual Time 7:10 AM HST 6:03 PM HST
Civil Twilight 6:46 AM HST 6:27 PM HST
Nautical Twilight 6:18 AM HST 6:55 PM HST
Astronomical Twilight 5:51 AM HST 7:22 PM HST
Moon 11:20 AM HST (1/6) 11:56 PM HST (1/6)
Length of Visible Light 11h 41m
Length of Day
10h 53m
Waxing Crescent, 37% of the Moon is Illuminated
Jan 6
Waxing Crescent
Jan 7
First Quarter
Jan 15
Full
Jan 23
Last Quarter
Jan 30
New

Hourly Weather History & Observations

Time (HST) Temp. Dew Point Humidity Pressure Visibility Wind Dir Wind Speed Gust Speed Precip Events Conditions
12:57 AM - - N/A% 30.00 in 4.0 mi NE 12.7 mph 18.4 mph 0.01 in Rain Light Rain
1:57 AM - - N/A% 30.00 in 8.0 mi NNE 9.2 mph - 0.00 in   Partly Cloudy
2:57 AM 68.0 °F 55.0 °F 63% 29.99 in 8.0 mi NNE 9.2 mph - N/A   Clear
3:57 AM 66.2 °F 53.1 °F 63% 29.99 in 8.0 mi NNE 9.2 mph - N/A   Partly Cloudy
4:57 AM - - N/A% 30.01 in 7.0 mi ENE 5.8 mph - N/A   Scattered Clouds
5:57 AM - - N/A% 30.01 in 9.0 mi NE 11.5 mph 17.3 mph N/A   Partly Cloudy
6:57 AM 68.0 °F 54.0 °F 61% 30.01 in 9.0 mi NE 8.1 mph - N/A   Partly Cloudy
7:57 AM 71.2 °F 54.0 °F 54% 30.03 in 7.0 mi ENE 8.1 mph - N/A   Clear
8:55 AM 71.6 °F 53.6 °F 53% 30.08 in - Variable 6.9 mph 24.2 mph 0.01 in Rain Rain
8:57 AM 72.1 °F 54.0 °F 53% 30.07 in 2.0 mi NNE 6.9 mph 24.2 mph 0.01 in Rain Rain
9:03 AM - - N/A% 30.08 in - NE 10.4 mph - 0.00 in Rain Light Rain
9:57 AM 73.0 °F 55.0 °F 53% 30.07 in 8.0 mi NE 10.4 mph - 0.00 in   Clear
10:57 AM 73.0 °F 55.0 °F 53% 30.06 in 8.0 mi NE 12.7 mph 18.4 mph N/A   Scattered Clouds
11:57 AM 76.3 °F 55.9 °F 49% 30.06 in 8.0 mi NE 9.2 mph - N/A   Scattered Clouds
12:57 PM 76.1 °F 55.0 °F 48% 30.03 in 9.0 mi NE 11.5 mph - N/A   Scattered Clouds
1:57 PM 78.3 °F 54.0 °F 43% 30.00 in 9.0 mi NE 9.2 mph - N/A   Partly Cloudy
2:57 PM 77.5 °F 54.0 °F 44% 29.99 in 9.0 mi NE 8.1 mph - N/A   Clear
3:57 PM 77.5 °F 53.1 °F 42% 30.00 in 8.0 mi NE 9.2 mph - N/A   Scattered Clouds
4:57 PM 75.2 °F 54.0 °F 47% 30.03 in 8.0 mi ENE 9.2 mph 17.3 mph N/A   Clear
5:57 PM 75.2 °F 52.0 °F 44% 30.05 in 8.0 mi NE 10.4 mph - N/A   Partly Cloudy
6:57 PM 73.6 °F 51.1 °F 45% 30.06 in 9.0 mi NE 10.4 mph 16.1 mph N/A   Clear
7:57 PM 71.8 °F 53.1 °F 52% 30.07 in 10.0 mi NNE 11.5 mph - N/A   Partly Cloudy
8:57 PM 71.2 °F 52.0 °F 51% 30.07 in 9.0 mi NE 11.5 mph - N/A   Partly Cloudy
9:57 PM 71.2 °F 52.0 °F 51% 30.07 in 10.0 mi NE 9.2 mph - N/A   Clear
10:57 PM 70.7 °F 53.1 °F 54% 30.08 in 10.0 mi NNE 13.8 mph 20.7 mph N/A   Scattered Clouds
11:57 PM 70.7 °F 53.1 °F 54% 30.07 in 10.0 mi NNE 12.7 mph - N/A   Partly Cloudy